Theta_e
285 285 285 284 285 285 286 286 286 286 286 286 286 286 287 287 287 286 286 286 285 284 284 284 283 283 282 282 281 281 280 280 279 279 278 278 278 278 277 277 277 276 275 275 275 275 275 275 276 276 276 275 275 275 275 275 275 275 275 276 276 276 277 278 278 277 277 278 278 278 279 280 281 281 282 283 283 284 284 284 284 284 285 286 287
285 285 285 285 285 285 285 285 285 286 286 286 286 286 286 286 286 286 286 285 284 284 283 283 283 282 282 281 281 281 280 279 279 278 278 277 277 277 277 277 276 275 274 274 274 274 274 274 275 275 275 274 274 274 274 274 275 275 275 275 275 275 275 276 276 276 275 276 276 277 279 280 280 281 282 283 283 283 283 283 283 284 284 285 285
285 285 285 285 285 284 284 284 285 286 286 286 286 286 286 286 286 286 285 284 284 283 283 282 282 281 281 281 280 280 280 279 278 278 277 277 277 277 276 276 276 275 274 274 273 273 273 273 273 273 273 273 272 273 273 273 274 274 274 274 274 274 275 275 275 274 274 274 276 278 279 279 280 281 280 281 282 282 282 282 283 283 283 283 283
286 285 284 285 285 285 284 284 284 284 284 285 286 286 286 286 286 285 285 284 283 283 282 282 281 281 281 280 280 279 279 279 278 277 277 277 276 276 276 276 275 274 273 273 273 273 273 273 273 273 272 272 271 272 272 272 272 273 273 273 273 273 273 273 274 273 273 274 275 277 277 278 280 280 277 279 280 281 281 282 281 282 282 282 282
286 285 284 284 285 285 285 284 284 284 284 285 286 286 286 286 285 284 284 283 283 282 282 281 281 280 280 280 279 279 278 278 277 276 276 276 276 276 275 275 275 274 273 272 272 272 272 272 272 272 272 271 271 271 271 271 271 271 271 271 271 272 272 272 273 272 272 273 274 275 277 278 279 277 275 277 279 280 280 280 280 280 281 281 280
285 285 284 284 285 285 285 285 284 284 284 285 286 286 286 285 284 284 283 283 282 282 281 280 280 280 279 279 279 278 277 277 277 276 275 275 275 275 275 274 274 274 273 272 272 272 272 272 272 272 272 271 270 270 270 271 270 270 270 270 270 271 271 271 271 272 272 272 273 273 275 275 275 274 274 276 277 277 278 279 279 279 278 278 279
285 285 284 284 285 285 285 285 285 284 285 286 285 284 285 285 284 283 282 282 281 281 280 280 279 279 279 278 278 277 276 277 276 275 274 274 274 274 274 274 274 273 273 272 271 271 271 271 271 271 271 271 270 270 270 270 270 269 269 269 269 270 270 270 270 271 271 271 272 272 272 272 272 273 273 274 274 275 277 277 277 277 277 277 278
286 285 284 284 285 285 285 286 286 286 287 286 285 284 285 285 284 283 282 281 280 280 279 279 279 279 279 278 277 277 276 276 275 274 274 273 274 274 274 273 273 273 272 271 271 271 271 271 271 271 271 270 270 270 270 270 269 269 269 269 269 269 269 269 270 270 270 271 271 271 271 271 272 272 272 273 273 274 274 275 275 276 276 276 276
286 286 285 285 285 285 286 286 287 287 287 286 286 285 285 285 284 283 282 281 280 279 278 278 278 278 278 278 277 277 276 275 274 274 273 273 273 273 273 273 272 272 272 271 270 270 270 270 270 270 270 270 269 269 269 269 269 268 268 268 268 268 268 269 269 270 270 270 270 270 270 270 271 271 272 273 273 273 273 274 274 274 274 274 274
286 286 286 286 286 286 286 287 287 287 286 286 286 285 285 285 284 283 282 281 280 278 277 278 278 278 278 278 277 277 275 274 274 273 273 272 272 272 272 272 272 272 271 271 270 270 270 270 270 270 270 269 269 268 269 268 268 268 267 267 267 268 268 268 268 269 269 269 269 269 269 270 270 271 271 272 272 272 272 272 273 273 273 273 273
287 286 286 286 286 286 286 286 286 287 286 286 285 285 285 285 284 283 282 281 280 278 277 277 277 277 278 278 277 276 275 274 273 273 273 272 271 272 272 272 272 271 271 270 270 269 269 269 269 269 269 269 268 268 268 267 267 267 267 267 267 267 267 267 267 268 268 268 268 268 268 269 269 270 270 271 271 271 271 271 272 272 272 272 272
288 287 286 286 286 286 286 286 286 286 286 285 285 285 284 284 284 283 282 282 280 279 277 277 277 277 277 277 276 276 274 274 273 273 272 272 271 271 271 271 271 271 271 270 270 269 269 269 269 269 268 268 268 267 267 267 267 267 267 267 267 267 267 267 267 267 267 267 267 267 268 268 268 268 269 269 269 270 270 270 270 271 271 271 271
290 289 288 286 286 286 286 286 286 286 286 285 285 285 284 284 283 283 283 283 281 279 277 277 277 277 277 277 276 275 274 274 273 272 272 272 271 270 271 271 271 271 270 270 270 269 269 268 268 268 268 268 267 267 266 266 266 266 266 266 266 266 266 266 266 266 266 266 267 267 267 267 267 267 268 268 268 269 269 269 270 270 270 270 270
290 290 288 287 286 287 286 286 286 285 286 286 285 284 283 283 282 283 283 283 282 280 278 277 277 277 277 276 276 275 274 274 273 273 272 272 271 270 270 270 270 270 270 270 269 269 268 268 268 268 267 267 267 266 266 266 266 266 266 266 266 266 266 266 266 266 266 266 266 266 266 266 266 267 267 267 268 268 269 269 269 269 269 269 269
290 289 288 287 287 288 287 287 287 286 286 286 285 284 283 282 282 282 282 282 282 280 279 277 277 277 276 276 275 275 274 274 273 273 273 272 271 270 270 270 270 270 270 269 269 269 268 268 267 267 267 267 266 266 266 266 266 266 265 265 265 265 265 265 265 265 265 265 266 266 266 266 266 266 267 267 267 267 268 268 268 268 268 268 269
290 290 289 287 288 288 288 287 287 287 287 286 285 285 284 283 283 282 282 282 282 281 280 278 277 277 276 276 275 275 274 273 273 273 273 272 271 270 269 269 269 269 269 269 269 268 268 267 267 267 267 266 266 266 265 265 265 265 265 265 265 265 265 265 265 265 265 265 265 265 265 265 266 266 266 266 267 267 267 267 267 267 267 267 268
291 290 289 288 288 288 288 288 288 287 287 286 286 286 285 284 284 283 282 282 282 281 280 279 278 277 276 276 275 275 274 273 273 273 272 271 270 270 269 269 269 269 268 268 268 268 267 267 267 266 266 266 265 265 265 265 265 265 265 265 265 264 264 264 264 264 264 265 265 265 265 265 265 265 266 266 266 266 266 266 266 267 267 267 267
291 290 288 288 288 288 288 288 288 288 288 288 288 287 286 285 284 284 283 282 282 282 281 279 278 277 276 275 275 275 274 273 273 273 272 271 270 270 269 269 268 268 268 268 268 267 267 267 266 266 266 265 265 265 265 265 265 264 264 264 264 264 264 264 264 264 264 264 264 264 264 265 265 265 265 265 265 265 265 266 266 266 266 266 267
291 291 289 288 288 288 289 289 289 289 288 288 288 288 286 285 285 284 284 284 283 282 280 279 278 277 276 275 275 275 274 273 273 272 271 271 270 270 269 268 268 268 268 267 267 267 267 266 266 266 266 265 265 265 264 264 264 264 264 264 264 264 264 264 264 264 264 264 264 264 264 264 264 264 264 264 264 265 265 265 265 265 266 266 266
292 291 290 289 288 289 289 289 289 289 289 289 289 288 287 286 285 284 284 284 283 281 280 279 278 277 276 275 275 275 273 273 272 272 271 271 270 269 269 268 268 268 267 267 267 267 266 266 266 266 265 265 264 264 264 264 264 264 264 263 263 263 263 263 263 263 263 263 263 263 263 263 264 264 264 264 264 264 264 264 265 265 265 265 266
292 292 291 289 288 289 289 289 289 289 289 289 288 288 287 287 286 285 284 283 282 281 280 279 278 276 275 275 275 274 273 273 272 272 271 270 270 269 269 268 268 267 267 267 267 266 266 266 266 265 265 264 264 264 264 264 263 263 263 263 263 263 263 263 263 263 263 263 263 263 263 263 263 263 263 263 263 263 264 264 264 264 264 265 265
292 291 290 289 288 289 289 289 289 288 288 288 288 288 287 287 286 285 284 283 282 281 280 279 278 276 275 275 274 274 273 273 272 271 271 270 269 269 268 268 267 267 267 267 267 266 266 266 265 265 265 264 264 264 264 263 263 263 263 263 263 263 262 262 262 262 262 262 262 262 262 262 262 262 262 263 263 263 263 263 263 264 264 264 265
291 290 289 288 288 288 288 288 288 288 288 288 288 287 287 286 286 285 284 283 283 282 281 279 277 276 275 274 274 274 273 273 272 271 270 270 269 269 268 268 267 267 267 267 266 266 266 265 265 265 264 264 264 263 263 263 263 263 262 262 262 262 262 262 262 262 262 262 262 262 262 262 262 262 262 262 262 262 262 262 263 263 264 264 264
291 290 288 287 288 288 288 288 288 288 288 288 287 287 287 286 286 285 284 284 283 282 280 278 277 276 275 274 274 273 273 273 272 271 270 270 269 268 268 268 267 267 267 266 266 266 265 265 265 264 264 264 263 263 263 263 262 262 262 262 262 262 261 261 261 261 261 261 261 261 261 261 261 261 261 261 262 262 262 262 262 263 263 263 263
290 289 288 287 287 286 286 286 287 287 287 287 287 286 286 286 286 285 284 284 284 282 280 278 277 275 274 273 273 273 272 272 271 270 270 269 269 268 268 267 267 267 266 266 266 265 265 265 264 264 264 263 263 263 262 262 262 262 262 261 261 261 261 261 261 261 261 261 261 261 261 261 261 261 261 261 262 262 262 262 262 262 263 263 263
289 288 288 287 285 284 284 285 285 285 285 285 285 285 285 285 285 285 284 284 284 282 280 278 276 274 273 272 272 272 272 271 271 270 270 269 268 268 267 267 267 266 266 266 266 265 265 264 264 264 263 263 263 262 262 262 262 261 261 261 261 261 261 261 260 260 260 261 261 261 261 262 262 262 262 262 262 262 262 262 262 262 262 262 263
288 287 286 285 284 283 283 284 284 284 284 285 284 284 284 284 284 284 283 283 283 282 279 277 275 274 272 271 271 271 271 271 271 270 270 269 268 268 267 267 267 266 266 266 265 265 265 264 264 263 263 263 262 262 262 261 261 261 261 261 261 261 260 260 260 260 261 261 261 262 262 262 262 262 262 263 263 263 263 262 262 262 262 262 262
286 286 285 285 284 284 284 285 285 284 284 283 283 283 283 283 283 283 282 282 282 280 278 275 273 272 271 270 271 271 271 271 271 270 269 268 268 267 267 267 266 266 266 265 265 265 264 264 263 263 263 262 262 262 261 261 261 261 261 261 261 261 260 261 261 261 262 262 262 262 262 262 263 263 263 263 263 263 263 263 263 263 262 262 262
285 285 285 285 285 284 284 283 282 281 281 280 280 280 280 280 281 281 281 281 281 279 276 274 272 271 270 270 271 271 271 271 270 269 269 268 267 267 266 266 266 266 265 265 265 264 264 263 263 263 262 262 262 261 261 261 261 261 261 261 261 261 262 262 262 262 263 263 263 263 263 263 263 263 263 263 263 263 263 263 263 263 262 262 262
285 285 285 284 283 282 281 280 279 279 279 278 278 278 278 279 279 279 279 279 279 277 274 272 271 270 270 271 272 272 271 270 269 269 268 267 267 266 266 266 265 265 265 265 264 264 263 263 263 262 262 262 261 261 261 261 261 262 262 262 263 263 263 263 263 263 263 263 263 263 263 263 263 263 263 263 263 263 263 263 263 263 263 263 263
285 284 283 281 280 279 278 278 278 278 277 277 277 276 277 277 277 277 277 277 275 273 272 271 270 271 271 272 272 271 270 269 269 268 267 267 266 266 266 265 265 265 264 264 264 263 263 263 262 262 261 261 261 261 261 261 262 263 264 264 264 264 264 264 264 264 264 264 264 263 263 263 263 263 263 263 263 263 264 264 264 264 265 265 265
283 282 280 278 278 277 277 277 277 276 276 276 275 275 274 274 273 273 273 273 272 271 271 272 272 272 272 271 271 270 269 268 268 267 267 266 266 266 265 265 264 264 264 263 263 263 262 262 262 261 261 260 260 261 261 261 262 264 264 265 265 265 265 265 265 265 264 264 264 263 263 263 263 263 263 263 263 263 264 264 265 265 265 266 266
281 279 278 277 277 276 276 276 276 275 275 274 274 273 273 272 272 272 272 272 272 272 273 272 272 272 271 270 270 269 268 268 267 266 266 266 265 265 265 264 264 264 263 263 263 262 262 262 261 261 260 260 260 260 260 261 262 263 264 265 265 265 265 265 264 264 264 263 263 263 262 262 262 262 262 263 263 263 264 264 264 265 265 265 265
279 278 277 277 276 275 275 275 275 274 273 273 273 273 272 272 272 273 273 273 273 273 272 272 271 271 270 269 268 268 267 267 266 266 266 265 265 265 264 264 264 263 263 263 262 262 261 261 261 260 260 259 260 260 260 261 262 263 264 264 265 265 264 264 263 262 262 262 262 262 262 262 262 262 263 263 263 263 263 264 264 264 264 264 265
278 277 277 276 275 275 274 274 274 273 272 272 272 272 272 272 272 272 272 272 272 271 271 270 270 269 269 268 267 267 267 266 266 265 265 265 265 264 264 264 263 263 263 262 262 261 261 261 260 260 259 259 259 260 260 261 262 263 264 264 264 264 263 263 262 262 261 261 261 261 262 262 262 263 263 263 263 264 264 264 264 264 265 265 265
277 276 276 275 275 274 274 273 272 272 271 271 271 271 272 272 272 271 271 270 270 270 269 269 269 268 267 267 267 266 266 265 265 265 264 264 264 264 264 263 263 262 262 262 261 261 260 260 260 259 259 259 259 260 260 261 262 263 263 264 264 263 263 262 262 261 261 261 261 262 262 262 262 263 263 263 264 265 265 265 265 265 265 266 266
276 276 275 274 274 273 272 272 271 270 270 270 270 271 271 271 271 270 270 269 269 269 268 268 267 267 267 266 266 265 265 265 265 264 264 264 264 263 263 263 262 262 261 261 261 260 260 260 259 259 258 258 259 260 260 260 262 263 263 263 263 263 262 262 261 261 261 262 262 262 262 263 263 263 263 263 264 265 265 265 266 266 266 266 266
276 275 274 273 272 271 271 270 269 269 269 269 270 270 270 270 270 269 269 269 268 268 268 267 267 266 266 265 265 265 264 264 264 264 264 263 263 263 262 262 262 261 261 260 260 260 259 259 259 258 258 258 258 260 260 260 261 262 262 262 262 262 261 261 261 261 262 262 263 263 263 263 263 263 263 264 264 265 265 266 265 265 266 266 266
275 274 273 272 270 270 270 269 269 269 269 269 269 269 269 269 268 268 268 268 267 267 267 267 266 266 265 265 265 264 264 264 264 263 263 263 262 262 262 261 261 261 260 260 260 259 259 259 258 258 258 257 257 259 260 259 260 261 262 261 261 261 261 261 261 262 262 263 263 263 262 263 263 263 264 264 265 265 265 265 265 265 265 265 265
273 272 271 270 270 269 269 269 268 269 268 268 268 268 268 267 267 267 267 267 267 266 266 266 266 265 265 265 264 264 264 263 263 263 262 262 262 261 261 261 260 260 260 259 259 259 259 258 258 258 257 257 257 258 259 259 259 260 261 261 261 261 262 262 262 262 262 262 262 262 262 262 263 263 264 264 264 265 265 265 265 265 264 265 265
272 271 270 269 269 269 269 268 268 268 267 267 267 266 266 266 266 266 266 266 266 266 265 265 265 264 264 264 263 263 263 263 262 262 262 261 261 261 261 260 260 260 259 259 259 258 258 258 258 257 257 257 257 257 258 259 259 259 261 261 261 261 262 262 262 262 262 262 262 262 262 262 262 262 263 263 264 265 265 265 265 264 264 265 264
271 270 269 269 268 268 268 268 268 267 267 266 266 265 265 265 265 265 265 265 265 265 265 264 264 264 264 263 263 263 262 262 262 261 261 261 261 260 260 260 260 259 259 258 258 258 257 257 257 257 257 257 258 258 258 258 259 259 260 261 261 262 262 263 263 263 263 263 262 262 261 261 261 262 263 263 264 265 265 264 264 264 265 264 262
269 268 268 268 268 268 267 267 267 267 266 265 265 265 264 264 264 264 264 264 264 264 264 264 263 263 263 262 262 262 262 261 261 261 261 260 260 260 259 259 259 259 258 258 258 257 257 256 256 257 257 258 258 258 258 258 258 259 259 261 261 262 263 263 263 263 263 262 261 261 261 261 261 262 263 264 264 265 264 263 263 263 263 262 260
268 268 267 267 267 267 267 266 266 266 265 265 264 264 264 264 264 264 263 263 263 263 263 263 263 262 262 262 262 261 261 261 261 260 260 260 259 259 259 259 258 258 257 257 257 257 256 255 255 256 257 258 258 258 258 258 258 258 259 260 261 262 263 263 263 262 262 261 261 261 261 261 262 263 263 264 263 263 262 262 262 261 260 259 259
267 267 267 266 266 266 266 265 265 264 264 264 263 263 263 263 263 263 263 263 262 262 262 262 262 262 261 261 261 261 261 260 260 260 259 259 259 258 258 258 258 257 257 256 256 256 255 255 255 255 256 257 258 258 258 259 259 259 259 260 261 261 262 262 261 261 261 260 261 261 262 262 263 262 262 262 261 261 261 261 260 260 259 259 258
267 266 266 266 266 265 264 264 264 263 263 263 262 262 262 262 262 262 262 262 262 261 261 261 261 261 261 261 260 260 260 260 259 259 259 258 258 258 258 257 257 257 256 256 256 255 255 255 255 255 256 257 257 258 258 259 259 259 260 260 260 260 261 261 260 260 260 261 261 261 261 261 261 261 261 261 261 260 260 260 260 259 258 257 257
266 266 265 265 265 264 264 263 263 263 262 262 262 262 261 261 261 261 261 261 261 261 261 261 260 260 260 260 260 259 259 259 259 258 258 258 258 257 257 257 257 256 256 256 255 255 255 255 255 255 256 256 257 257 258 259 259 259 260 260 260 260 260 260 260 261 261 261 261 261 261 261 260 261 261 261 260 260 260 259 259 258 257 256 256
266 265 265 264 264 263 263 262 262 262 262 262 261 261 261 261 261 260 260 260 260 260 260 260 260 260 259 259 259 259 259 258 258 258 258 257 257 257 257 257 257 256 256 256 256 256 256 256 256 256 256 256 257 257 258 258 259 260 260 260 260 260 260 261 261 261 261 261 261 261 261 260 260 260 260 260 259 259 259 258 257 257 256 255 255
265 265 264 264 263 263 262 262 262 262 262 262 261 261 261 260 260 260 260 260 260 259 259 259 259 259 259 258 258 258 258 258 257 257 257 257 257 257 256 257 257 257 257 257 257 257 257 258 257 257 257 256 256 258 259 259 260 260 261 261 261 261 261 261 261 261 261 261 261 260 260 260 259 259 259 259 258 258 257 257 256 255 255 254 254
265 265 264 263 263 262 262 262 262 261 261 261 261 261 260 260 260 260 259 259 259 259 259 259 259 258 258 258 258 258 257 257 257 257 256 257 257 257 257 257 258 258 258 258 259 259 259 259 259 259 259 258 258 259 260 260 261 261 261 261 261 261 261 261 261 261 261 261 260 260 259 259 258 258 258 258 257 257 256 255 255 254 254 254 253
264 264 263 262 262 262 261 261 261 261 261 261 260 260 260 260 260 259 259 259 259 258 258 258 258 258 258 257 257 257 257 257 257 256 256 256 256 256 257 257 257 258 258 259 260 261 261 261 260 260 260 260 260 260 260 260 261 261 261 260 261 261 262 262 262 262 261 261 260 259 258 258 258 257 257 256 256 255 255 254 254 253 253 253 253
Wind_Speed
10 12 12 12 12 11 11 11 11 12 12 11 11 10 9 9 8 7 6 5 4 4 3 3 2 3 3 4 4 4 5 7 8 10 13 14 15 15 15 15 15 14 13 13 12 13 13 13 13 14 14 14 13 11 10 9 9 11 12 11 13 14 14 13 15 18 19 19 20 23 25 23 20 17 16 15 16 15 13 13 12 11 13 12 12
10 13 14 15 15 14 14 14 14 14 14 14 13 12 12 11 10 9 8 7 6 5 4 4 4 4 4 5 6 7 7 7 8 10 13 15 15 16 15 15 15 14 12 12 12 13 13 13 14 14 13 13 12 10 9 9 9 11 11 12 11 13 13 12 15 15 13 14 15 17 20 19 13 9 9 9 9 9 10 11 11 9 9 9 8
9 13 16 19 19 18 18 18 18 17 16 16 16 15 14 14 13 12 10 9 8 7 5 4 4 5 5 6 7 8 8 8 9 10 12 14 15 16 16 16 16 15 12 11 12 13 13 13 13 13 13 12 11 9 8 8 9 10 10 11 11 12 11 10 12 11 11 14 12 7 7 9 7 6 8 10 10 12 12 10 8 8 9 9 8
9 11 16 20 21 21 22 23 23 22 21 21 20 19 17 16 15 14 13 12 11 9 7 6 5 5 6 6 7 9 9 9 10 10 12 14 15 16 16 16 16 15 12 11 11 13 13 13 13 14 12 11 9 8 7 7 9 9 9 10 10 11 10 9 10 9 9 9 6 4 4 4 3 5 14 19 16 11 8 6 10 12 10 10 11
10 10 15 20 23 25 27 26 26 26 26 26 25 22 20 18 17 16 16 14 13 11 8 7 6 6 7 7 8 9 10 11 12 11 11 13 15 16 16 16 15 14 12 11 11 12 13 13 13 14 12 10 9 7 6 7 9 9 8 9 8 8 9 9 10 9 7 4 1 2 3 2 2 7 15 15 12 12 12 13 13 11 12 15 16
12 13 16 21 24 26 28 28 29 29 31 30 28 25 22 20 19 18 18 16 14 12 10 9 8 7 7 8 9 10 11 12 13 12 12 13 15 15 15 15 15 15 13 11 11 11 12 13 13 13 12 11 9 7 6 7 9 8 7 9 8 7 8 10 10 10 8 5 1 2 3 3 5 8 8 5 11 18 17 14 13 14 18 19 18
12 14 18 22 24 26 28 31 32 33 34 32 30 28 25 23 22 21 20 18 16 14 12 10 9 8 9 9 10 11 12 14 13 13 14 14 14 14 14 14 15 15 14 12 11 11 12 12 12 12 12 11 9 7 7 7 9 9 7 8 8 6 7 9 10 10 10 7 4 5 8 7 7 6 3 3 8 10 11 15 19 21 20 18 17
11 12 16 22 25 27 30 33 35 36 35 33 32 31 28 26 24 22 21 19 18 15 14 12 11 10 10 10 11 11 13 14 14 15 15 14 13 13 14 15 15 15 15 13 11 11 11 11 12 12 12 12 9 6 7 8 10 9 9 8 7 7 7 8 9 9 10 10 10 10 9 8 9 8 8 8 5 5 9 13 16 18 19 20 19
12 13 17 24 28 31 34 35 36 37 36 35 35 33 30 28 26 24 23 21 19 17 16 15 13 12 12 12 13 13 13 14 15 16 15 15 15 15 15 16 16 16 15 13 12 11 11 11 12 12 13 12 9 8 9 10 10 10 9 8 8 8 7 7 8 8 9 10 11 12 11 10 11 9 8 8 6 6 7 6 9 15 18 21 20
13 17 21 26 30 34 35 35 36 36 37 37 36 35 33 30 28 27 26 24 21 19 19 18 16 15 14 14 15 14 14 14 15 16 16 16 16 17 17 17 17 17 15 13 13 12 12 12 12 13 13 12 11 10 11 11 11 10 9 9 9 9 8 7 8 8 9 10 10 11 12 11 10 7 5 8 8 7 6 6 9 11 13 17 18
12 16 22 28 30 32 31 32 35 36 36 36 36 36 35 33 31 30 29 26 23 22 22 22 20 18 18 17 16 16 14 14 15 16 16 16 17 17 16 17 18 18 16 15 14 13 13 13 13 13 14 13 13 12 12 12 12 11 10 9 9 9 9 9 9 10 10 10 10 10 11 10 9 7 8 10 9 7 7 7 8 11 15 17 14
10 11 17 23 25 27 28 32 35 34 34 36 38 38 37 36 34 32 32 29 27 25 25 25 24 22 21 20 18 17 16 16 16 17 16 16 17 17 17 17 18 18 17 16 15 15 14 14 14 14 14 14 14 13 13 12 11 10 10 10 11 10 10 10 11 11 11 12 11 10 11 11 11 11 11 12 11 11 11 8 10 13 13 14 14
10 10 12 16 21 25 28 32 34 34 35 38 39 38 38 37 36 35 36 34 30 29 28 28 28 25 24 23 21 19 18 18 18 17 16 16 17 17 17 18 19 20 19 18 17 16 16 16 15 15 15 15 14 13 13 12 11 11 11 12 12 11 11 11 12 13 12 13 13 13 13 13 14 13 12 12 12 14 13 10 12 13 11 14 17
10 10 10 14 20 25 28 31 33 34 37 39 38 39 38 37 37 38 39 37 33 32 31 31 31 29 27 25 23 22 20 20 19 17 16 16 17 18 18 18 19 20 20 19 18 17 17 17 16 16 15 15 14 13 13 12 11 12 12 13 12 12 12 13 13 14 13 13 14 14 15 15 15 14 13 14 13 13 13 11 11 12 12 15 16
9 9 11 17 24 27 28 30 32 34 37 37 37 38 38 38 39 40 41 39 36 35 34 35 35 33 30 28 26 24 23 21 20 18 17 17 17 19 19 19 18 19 20 19 18 17 17 17 16 16 16 15 15 13 13 12 12 13 13 13 13 13 14 14 14 14 14 15 15 15 15 16 16 15 15 15 14 13 14 14 12 9 8 10 10
9 10 12 20 27 28 28 30 32 34 35 35 37 38 39 40 41 41 42 41 38 37 38 38 38 36 33 32 29 27 25 23 21 19 19 18 18 18 19 19 18 18 18 18 18 17 17 17 17 17 16 16 15 13 12 13 13 14 13 14 15 15 14 14 14 14 15 15 15 15 16 16 15 15 15 16 16 16 17 17 14 9 7 7 6
10 10 12 19 25 27 29 31 32 33 34 36 39 40 41 42 41 41 41 40 39 40 41 41 40 38 37 35 32 29 27 25 23 21 20 19 18 18 18 18 18 17 18 18 18 17 17 17 17 17 17 16 15 13 13 13 14 14 15 16 16 15 15 15 15 15 15 15 15 15 16 17 16 16 17 18 18 19 18 17 16 13 10 7 6
10 11 13 19 24 26 29 31 33 35 36 38 40 41 41 41 41 42 41 42 43 43 43 42 41 41 39 37 34 31 28 27 24 22 21 20 19 19 18 18 18 17 17 17 17 17 17 18 18 18 17 16 15 14 14 14 14 15 16 17 17 15 15 15 15 15 15 15 16 16 17 18 18 18 19 19 19 19 18 18 18 17 15 11 8
10 11 11 16 22 27 29 31 33 35 36 38 40 39 38 39 42 42 43 45 44 43 42 42 42 42 40 39 35 31 29 27 24 23 22 21 21 20 18 17 17 17 17 17 18 18 18 18 18 18 17 17 16 15 15 15 15 16 17 17 16 15 14 15 15 14 15 15 16 17 17 17 18 18 19 19 19 19 19 20 19 19 18 17 15
10 10 10 14 22 27 30 31 32 34 35 36 37 36 37 39 41 41 43 44 42 41 41 42 42 42 40 38 35 32 29 26 24 23 23 23 23 21 19 17 16 16 18 18 18 18 18 18 18 18 18 17 16 16 15 16 16 17 17 17 16 14 14 15 15 16 16 16 17 17 17 18 17 18 19 19 19 19 19 20 20 21 20 20 20
10 10 10 15 21 26 28 30 31 31 32 33 34 35 36 38 39 41 43 41 40 40 41 42 43 42 41 39 36 32 29 26 24 24 24 24 24 22 19 17 16 16 17 18 19 18 18 18 18 18 18 17 17 16 16 17 17 17 17 16 15 15 16 16 17 17 17 17 17 17 17 17 17 18 19 19 19 20 20 21 20 21 22 21 21
11 11 12 15 20 23 25 26 27 28 29 31 32 33 34 36 38 39 39 38 40 42 43 43 42 41 42 41 37 34 30 26 25 25 25 25 25 23 19 17 16 15 16 19 19 18 18 19 18 18 18 17 17 17 18 17 17 17 17 16 16 16 17 18 17 17 17 17 16 16 17 18 18 19 19 19 20 20 20 21 21 21 22 21 20
11 12 14 17 21 22 23 24 25 26 27 29 31 31 32 35 36 36 37 39 42 43 43 42 40 40 42 41 38 35 31 27 26 26 26 26 26 23 20 17 16 15 16 18 18 18 18 18 18 18 18 17 18 18 18 18 18 18 18 18 19 18 18 18 18 18 18 17 17 18 18 18 18 19 19 20 21 21 21 21 22 21 22 22 21
11 11 13 17 20 20 20 21 22 24 27 29 30 30 31 33 34 36 38 40 42 42 42 41 41 42 42 41 39 37 32 28 27 27 26 26 26 24 20 17 15 14 15 16 17 17 18 18 18 18 18 18 18 19 19 19 19 18 19 20 20 20 19 19 19 19 19 19 18 19 19 20 19 19 20 20 20 21 20 20 21 21 21 22 22
11 11 11 12 14 15 16 18 21 24 26 27 29 29 30 31 33 34 36 38 41 41 41 41 42 42 40 39 38 35 30 27 27 26 25 25 26 23 19 16 14 14 15 15 16 17 17 17 18 18 18 19 19 20 20 20 20 20 20 21 21 21 21 21 21 21 21 20 20 21 21 20 19 20 21 21 20 21 20 20 20 20 19 19 19
11 10 9 9 11 13 16 19 21 23 25 27 28 29 30 31 32 34 36 39 41 41 40 39 39 38 37 36 34 30 27 25 24 23 24 25 25 23 19 16 14 14 15 15 16 17 17 17 18 18 19 20 21 21 21 21 22 22 22 22 23 23 23 23 23 23 22 21 20 20 20 18 19 21 21 21 21 22 22 22 22 22 21 21 22
9 9 8 9 10 13 17 20 22 24 26 27 28 28 29 30 31 33 35 37 40 40 38 35 34 34 33 31 29 26 23 22 21 22 23 24 24 21 18 16 15 14 15 16 16 17 17 17 18 19 19 21 21 22 22 23 23 24 23 23 24 24 24 24 23 21 20 19 19 19 19 19 19 21 22 22 23 23 25 25 25 25 24 23 23
9 9 9 10 10 12 17 22 24 27 29 30 31 31 32 32 33 35 35 37 39 38 33 29 29 28 25 24 23 20 18 17 19 22 23 23 22 20 17 15 14 15 15 15 16 16 17 17 18 19 20 21 22 23 24 24 24 24 23 23 23 23 23 22 21 20 20 19 20 21 21 20 20 21 22 23 24 25 26 27 27 26 25 24 23
10 10 10 10 11 14 20 24 27 29 31 33 33 34 35 36 37 37 37 38 38 33 27 24 22 20 18 17 15 13 14 17 20 21 21 21 20 18 16 15 15 15 15 14 15 16 17 18 19 20 21 22 23 24 25 24 23 22 22 22 22 22 22 22 22 22 21 22 23 22 21 21 21 22 24 25 26 26 26 27 28 27 25 24 24
10 11 11 11 14 19 23 25 27 29 31 32 32 34 35 36 37 38 40 40 34 26 21 16 14 12 10 9 8 11 16 18 19 20 20 19 18 16 15 15 15 14 13 14 15 16 18 19 20 21 22 23 24 25 24 22 22 21 22 23 24 24 24 24 23 24 24 25 24 22 21 21 23 24 24 25 25 25 25 27 27 27 27 28 27
11 12 13 13 16 19 21 23 25 27 29 30 31 33 35 36 37 37 36 30 20 9 3 3 5 4 3 5 10 13 16 16 17 18 18 17 16 15 15 15 14 13 13 14 15 17 18 19 20 21 23 24 24 24 23 21 21 21 22 23 24 24 23 23 24 25 25 25 23 21 21 23 23 23 23 24 25 25 26 26 27 28 28 30 31
12 13 13 13 14 18 21 23 25 27 29 29 31 32 31 30 30 28 23 17 14 13 12 9 5 3 6 9 11 13 14 15 15 16 15 15 15 14 14 14 13 13 13 14 15 17 18 19 20 21 22 23 23 23 21 21 22 22 22 23 24 25 24 23 23 22 22 21 20 21 22 23 23 23 23 24 25 25 25 26 26 27 27 29 30
11 11 12 13 15 19 22 24 25 26 27 29 29 28 25 23 23 22 20 18 17 15 12 9 8 8 9 10 11 12 12 13 13 13 13 13 13 14 14 14 13 13 13 14 16 17 18 19 20 21 22 23 23 23 21 21 22 22 23 24 25 25 23 21 19 19 20 20 21 22 23 24 24 24 22 22 23 25 25 26 27 27 28 29 30
10 10 12 14 17 20 22 23 24 26 28 29 28 25 22 20 20 19 18 16 15 14 13 11 11 11 12 11 11 11 11 11 11 12 12 13 14 14 14 13 13 13 14 15 16 18 19 20 21 22 23 24 24 22 21 21 22 23 24 25 26 23 19 17 17 18 20 21 21 21 23 24 24 22 21 22 23 24 26 28 29 29 30 31 31
10 10 13 16 19 20 21 22 24 27 28 28 27 25 22 21 21 20 18 16 15 14 12 12 12 12 11 10 10 10 10 11 11 12 13 14 14 14 13 14 14 14 15 16 17 18 19 20 21 22 23 24 24 22 21 22 24 24 25 25 25 22 19 18 18 18 18 19 20 21 23 24 23 22 21 22 22 24 26 28 28 28 30 32 33
11 12 15 17 18 19 21 22 25 27 27 27 27 25 23 23 22 20 17 14 13 12 11 11 12 11 10 9 10 10 10 11 11 12 13 13 14 14 14 14 14 15 16 16 17 18 19 21 22 22 23 24 25 22 22 23 23 24 24 25 25 23 21 20 20 19 19 20 21 21 22 23 22 22 21 20 22 25 26 27 28 30 31 31 32
14 17 16 16 17 19 22 23 25 26 26 27 28 27 24 24 21 18 15 14 13 12 12 12 11 10 9 9 9 9 9 10 11 12 13 13 14 14 14 15 15 16 16 17 18 19 20 21 21 22 23 25 26 23 22 23 23 24 24 25 24 23 22 22 22 22 21 21 20 20 20 20 21 21 21 21 24 26 27 28 28 28 29 30 31
17 17 15 16 19 21 22 23 24 25 26 27 27 25 23 20 19 17 16 15 14 14 14 13 12 10 9 9 9 9 10 11 12 13 13 14 14 14 15 15 16 16 17 18 18 19 20 20 21 23 24 26 26 25 23 23 24 24 25 25 25 24 24 24 24 24 23 22 19 18 18 19 21 23 23 23 25 26 26 27 26 27 28 29 29
16 14 14 17 21 22 22 22 23 23 24 26 25 22 20 18 18 19 18 16 15 15 14 13 12 11 11 11 11 12 12 13 14 14 14 14 14 15 16 16 16 17 18 18 18 19 21 22 23 24 25 25 27 26 24 24 24 24 25 26 25 24 24 24 24 24 23 20 19 20 21 21 22 22 22 22 24 26 27 28 29 28 25 23 22
15 15 16 19 21 21 20 21 20 20 22 23 22 20 18 18 19 19 17 16 16 15 14 13 13 13 13 13 14 15 15 15 15 15 15 15 16 16 17 17 17 18 18 18 19 20 21 23 25 26 26 26 27 27 26 24 24 25 25 26 25 24 23 22 22 21 21 22 23 24 23 20 18 19 20 23 26 28 30 31 27 19 16 18 20
13 16 19 21 20 18 18 18 17 18 20 21 21 20 19 18 19 18 17 17 16 15 14 14 14 14 15 15 16 16 16 16 16 16 16 17 17 18 18 18 18 18 18 19 20 21 22 25 27 27 28 27 27 27 26 23 22 24 25 25 25 24 22 22 22 22 24 25 24 20 18 16 17 19 23 27 29 31 31 26 16 12 15 19 17
13 17 19 18 17 16 17 17 15 16 19 20 20 20 19 19 18 17 17 17 16 15 15 15 15 16 16 17 17 17 17 17 17 16 17 18 18 18 19 19 19 19 19 20 22 22 23 26 28 28 28 28 26 25 25 23 21 22 23 24 24 24 23 23 23 23 22 21 18 16 17 19 21 23 26 28 30 30 25 17 12 15 19 17 15
15 18 17 17 16 16 17 16 15 16 18 20 21 20 19 18 17 17 17 17 16 16 16 16 17 17 17 17 17 17 17 17 17 17 17 18 19 19 19 20 19 19 20 21 23 24 24 25 28 28 28 27 25 24 23 22 20 20 22 24 24 24 24 23 22 20 18 16 17 19 21 22 23 25 27 28 27 24 18 15 17 19 18 18 21
15 16 16 17 16 16 16 16 16 16 18 20 20 20 19 18 17 18 18 18 17 17 17 18 18 19 19 19 18 18 18 18 18 18 18 20 21 20 21 21 20 20 20 22 24 24 23 24 26 28 28 27 25 24 23 21 20 20 21 23 23 23 24 23 22 21 19 19 21 23 23 23 24 25 25 24 23 20 18 18 20 19 19 22 26
14 14 15 16 16 14 15 16 17 18 18 19 19 18 18 18 18 19 19 18 18 18 18 19 19 19 19 19 19 19 19 19 19 19 20 21 21 21 21 21 21 20 20 21 23 23 22 23 24 26 28 28 26 25 23 21 20 20 21 23 24 25 25 25 24 24 24 24 23 24 24 24 24 24 24 23 22 22 21 21 22 22 23 25 26
13 14 15 15 14 14 16 18 19 18 18 19 18 17 18 19 19 19 19 18 18 19 19 20 20 20 20 20 20 21 20 20 20 20 20 21 21 21 21 21 21 21 21 21 23 23 22 23 24 26 28 28 27 26 25 23 22 23 25 26 26 27 27 26 26 26 25 25 25 25 25 25 24 23 22 20 20 22 23 24 25 25 25 24 22
12 12 14 15 14 14 16 17 18 18 19 19 18 18 18 18 19 19 18 19 19 18 20 21 21 21 21 21 21 22 22 22 21 21 21 21 21 20 21 21 21 21 21 22 22 23 22 22 24 26 27 28 28 27 27 27 26 26 27 28 28 28 27 26 26 25 25 26 27 26 25 25 24 23 22 22 22 23 24 24 24 23 22 20 19
12 12 14 15 15 15 16 17 17 18 18 18 19 20 19 19 19 19 19 19 19 19 20 21 21 22 22 22 21 22 22 22 22 22 22 22 22 21 21 22 22 22 22 23 23 24 24 25 26 27 27 26 27 28 28 28 27 27 27 28 28 28 28 28 28 29 29 29 28 27 27 27 26 25 24 24 23 22 21 22 22 20 19 18 16
12 12 13 14 14 15 16 17 17 18 18 19 21 21 20 19 18 18 18 19 20 21 21 22 22 22 22 22 22 22 22 23 23 23 23 23 22 22 22 23 23 22 22 24 25 27 28 28 28 28 27 26 27 28 27 25 25 26 27 28 29 29 29 29 29 28 29 29 27 27 27 26 23 21 20 19 19 19 20 20 19 18 17 16 16
12 13 14 15 15 16 16 17 18 19 19 21 22 21 19 18 17 17 18 19 20 21 22 23 23 23 23 23 24 23 23 23 23 24 25 25 25 22 20 21 23 23 22 23 25 27 29 29 27 27 25 23 24 25 24 23 24 24 23 23 23 23 24 25 26 26 26 25 22 20 19 18 16 15 16 17 18 18 18 18 17 16 15 16 16
12 13 15 17 17 17 17 17 18 19 21 21 21 19 18 17 17 17 18 19 20 21 22 23 23 24 24 24 24 24 24 24 23 23 23 24 26 26 24 21 20 20 20 21 22 25 27 25 23 21 20 18 19 21 21 21 23 23 21 20 21 22 24 24 22 20 18 15 13 11 11 12 13 14 16 17 17 16 15 16 16 15 15 15 15
Wind_Direction
211 205 213 219 219 214 209 205 201 201 201 203 208 213 219 220 216 217 221 227 230 242 256 266 285 305 326 331 336 338 310 297 295 290 292 296 297 298 299 302 306 308 304 296 293 293 295 296 297 300 303 306 308 308 309 311 316 320 323 324 325 326 323 322 324 323 324 322 316 310 307 303 299 295 289 285 282 278 277 281 292 309 316 311 294
216 214 216 219 227 228 228 226 221 218 214 213 217 220 227 232 234 232 231 232 233 239 251 270 289 304 326 328 329 334 327 316 308 295 291 292 293 293 295 298 303 307 303 296 296 296 298 300 302 307 311 310 307 303 299 296 298 306 315 318 320 330 335 333 334 340 347 340 327 317 318 319 316 310 296 281 274 273 278 289 296 309 323 330 327
222 222 220 220 226 229 232 235 235 235 231 227 225 225 229 233 238 239 237 235 234 240 249 262 281 295 310 318 321 324 323 316 311 301 288 284 286 287 290 294 300 305 301 296 299 299 302 304 306 311 316 316 312 305 300 298 302 305 315 320 317 320 323 322 332 351 356 342 333 316 324 330 327 337 318 292 288 292 290 294 296 304 317 323 331
222 226 225 223 225 228 231 235 237 239 239 237 233 230 232 234 237 239 239 238 236 240 248 255 270 284 295 305 312 314 314 310 307 298 281 276 278 279 283 289 295 300 297 294 297 298 301 304 307 310 314 319 316 311 311 313 315 316 323 327 327 328 325 316 317 333 349 355 348 306 322 324 295 358 335 312 307 304 289 300 309 311 316 315 319
217 223 226 225 225 228 230 234 237 238 238 240 239 236 236 237 238 238 238 238 238 241 246 255 266 278 291 301 307 309 308 306 304 296 278 268 269 273 279 284 288 293 292 289 291 294 297 299 303 306 309 318 320 316 319 321 318 322 331 328 331 341 337 322 313 321 335 348 0 297 325 319 268 344 335 313 310 310 298 305 312 315 318 316 319
220 222 223 224 226 229 232 233 235 237 239 242 242 241 242 241 238 237 238 238 239 242 245 253 264 275 288 295 302 304 303 303 301 293 280 269 269 273 277 279 282 286 285 282 286 291 292 293 297 299 304 314 321 317 317 321 318 322 334 327 329 340 335 326 320 324 324 315 321 242 251 266 290 329 337 299 308 308 298 301 305 311 319 318 319
225 228 226 226 227 229 231 233 233 236 241 244 243 242 243 244 242 239 240 240 240 242 244 250 260 270 280 287 293 296 295 300 297 287 281 275 273 272 271 273 275 279 280 277 279 286 286 286 290 291 297 308 316 315 313 314 312 315 322 321 325 328 327 331 328 328 324 313 316 291 279 283 287 300 296 274 310 307 293 299 301 306 314 312 313
222 228 227 227 228 228 231 234 235 237 241 244 243 242 242 244 245 242 242 242 241 241 243 248 255 263 272 279 283 288 289 292 290 284 281 275 269 268 269 270 272 274 277 273 269 276 278 277 281 282 289 301 308 301 296 297 299 305 308 310 315 315 320 326 321 322 320 313 315 314 307 305 298 288 272 266 276 288 297 303 302 304 305 303 308
221 225 226 228 229 230 233 236 238 240 240 242 244 244 244 245 245 244 243 243 241 240 241 245 252 258 265 271 276 282 283 283 282 281 280 270 262 264 268 270 270 271 274 271 264 266 269 269 273 277 283 295 297 281 279 285 292 299 302 307 310 305 307 313 311 313 314 311 315 317 316 316 315 305 285 279 279 282 296 312 314 314 307 303 306
227 230 231 231 231 233 236 238 241 242 242 243 245 245 245 246 245 244 244 244 242 239 240 243 246 251 258 264 270 274 275 275 277 279 279 269 261 262 265 267 268 268 269 267 263 263 266 268 271 274 281 290 288 277 277 283 289 294 296 300 302 301 302 304 304 302 302 304 308 312 315 319 320 317 309 312 307 287 284 302 315 318 312 306 308
230 233 236 237 238 239 239 240 242 244 244 243 243 243 243 244 244 244 245 245 242 238 239 242 243 246 253 258 262 265 267 268 270 275 276 270 263 261 262 264 265 265 265 263 261 261 264 268 271 273 278 285 285 278 279 284 289 291 291 292 293 297 299 297 297 296 296 299 300 302 307 309 308 307 309 313 312 298 295 300 306 310 302 297 305
230 232 238 240 242 242 240 241 243 242 242 242 242 242 241 241 243 244 245 245 242 238 237 240 241 243 248 252 254 256 259 260 262 268 272 270 265 260 258 261 262 261 261 260 258 259 263 266 269 273 276 281 284 280 279 283 286 286 287 289 290 290 290 293 296 296 296 299 299 298 300 298 296 298 301 302 301 298 297 294 300 308 299 290 302
233 231 237 237 238 239 237 238 241 240 240 241 241 240 239 240 240 242 245 245 242 238 236 238 239 241 245 247 249 250 252 254 256 260 268 270 265 257 254 257 259 258 258 259 259 258 261 264 267 271 275 280 282 279 278 282 281 282 285 285 286 285 287 292 293 292 293 296 296 293 293 293 293 297 297 296 297 298 297 294 299 305 297 293 304
237 235 237 237 236 237 237 238 239 240 241 241 241 240 239 240 240 240 244 244 241 238 236 236 238 240 243 244 244 244 246 248 250 256 264 266 262 255 251 253 256 258 258 259 261 260 261 263 266 271 274 278 280 276 277 278 277 279 282 283 283 283 286 289 289 290 290 289 290 291 292 293 293 295 294 294 298 299 299 303 308 307 296 293 300
243 242 242 242 241 240 239 240 240 241 243 242 241 241 240 240 241 240 242 242 239 238 236 235 237 239 240 240 240 240 242 244 247 253 260 260 258 252 248 250 253 256 258 259 261 262 261 262 265 270 273 276 278 276 274 275 275 278 280 280 281 282 285 287 287 289 289 287 289 291 292 292 291 292 292 294 295 294 298 305 311 314 301 294 297
245 244 245 246 246 245 243 243 243 244 244 244 243 242 241 241 242 241 242 242 239 238 237 235 236 237 237 237 237 237 239 240 243 249 253 254 253 249 246 247 249 253 257 260 262 263 261 261 264 267 271 275 278 274 271 273 275 278 278 278 280 281 284 285 285 286 286 287 289 290 291 291 289 290 290 289 290 290 295 300 301 301 299 301 302
247 244 247 249 249 248 247 245 245 245 245 245 246 245 244 243 242 242 243 241 239 239 237 235 234 234 234 234 233 234 235 236 240 244 247 248 247 247 246 245 246 251 257 260 262 262 260 261 263 267 271 276 276 271 269 273 275 275 276 279 281 282 283 283 283 284 284 285 287 286 288 288 287 287 286 286 288 290 293 294 293 291 288 291 300
259 255 252 253 253 251 250 248 247 247 247 248 249 250 247 244 244 243 241 241 241 239 237 235 233 232 232 232 231 232 233 235 239 242 243 243 243 243 244 244 245 248 254 258 259 260 259 260 264 268 272 275 275 271 271 273 273 273 276 280 282 281 282 282 281 282 283 284 285 285 285 286 286 286 286 287 288 289 290 289 290 289 284 278 280
264 262 257 255 255 253 252 251 251 251 251 252 254 253 248 246 246 244 243 244 244 240 237 235 233 232 232 231 230 232 232 233 237 240 241 242 242 241 239 241 243 245 251 255 255 256 258 261 264 267 271 275 276 274 273 273 273 276 279 282 282 281 281 282 281 282 283 282 283 284 284 284 285 286 286 288 289 288 288 288 288 288 283 278 275
264 264 263 260 259 258 257 256 255 256 256 256 256 254 250 248 247 244 245 246 244 240 238 235 234 232 231 230 231 231 231 232 236 239 240 242 243 239 235 236 238 242 248 250 251 254 258 261 263 265 271 276 275 272 272 273 275 278 280 281 282 281 279 279 279 278 279 280 281 282 283 283 285 287 287 288 288 287 287 286 286 285 282 279 276
276 274 271 270 268 266 264 263 263 263 262 261 259 256 253 250 247 246 246 244 243 241 239 237 235 232 229 229 229 229 229 231 235 238 240 243 242 238 233 232 234 238 243 245 249 256 260 261 261 265 272 275 272 271 272 275 277 278 279 279 278 277 276 276 277 277 278 280 281 282 282 282 283 285 286 286 286 285 285 283 282 282 279 277 275
285 285 284 282 278 276 275 273 271 269 267 266 264 260 256 253 251 249 247 245 244 243 240 238 235 231 229 228 227 226 227 230 233 236 238 240 240 237 233 231 232 235 239 243 250 256 258 257 260 266 272 272 270 271 273 276 277 277 277 276 275 276 277 278 277 277 279 280 281 280 280 280 281 282 283 282 282 281 281 281 279 278 277 275 273
286 288 289 289 289 288 286 283 280 277 276 275 273 267 262 258 256 252 249 248 247 245 243 239 233 230 229 226 224 224 225 227 230 233 235 238 238 237 233 232 233 235 237 243 251 254 253 254 260 267 270 270 269 271 274 276 276 276 276 276 277 278 277 277 277 277 278 280 280 280 279 280 281 281 280 279 279 280 279 278 277 275 275 274 272
292 293 294 296 296 294 291 290 289 289 288 286 283 278 272 267 263 257 254 253 252 249 245 239 233 231 227 222 220 221 222 224 227 230 233 236 237 236 234 234 235 234 237 243 248 249 249 254 261 267 269 269 269 272 276 277 275 274 275 277 279 279 277 277 278 278 280 280 280 279 279 281 280 278 278 279 279 280 279 277 277 276 274 274 273
305 304 304 303 302 301 301 302 303 303 303 302 300 298 292 285 278 271 265 263 262 257 249 240 234 230 225 219 217 217 219 222 226 230 234 236 237 237 235 234 234 235 238 241 242 244 248 255 261 266 268 267 270 275 277 276 275 275 277 278 278 278 278 278 278 279 279 279 278 279 280 282 281 278 279 281 281 281 280 277 275 274 273 273 273
310 310 311 313 317 322 324 325 325 323 321 319 316 313 308 302 294 286 277 272 270 263 252 243 235 229 223 217 213 213 217 222 227 234 238 240 240 239 237 235 235 235 236 237 239 244 250 257 262 265 267 268 273 278 277 276 276 278 278 278 278 278 278 279 279 279 280 280 280 282 283 283 282 280 280 283 284 284 282 279 275 274 273 273 273
315 322 330 335 340 340 338 336 333 330 327 325 322 318 314 309 303 297 288 280 276 267 255 243 234 227 222 215 211 213 216 223 234 240 242 242 241 240 238 237 236 234 233 235 240 247 254 260 264 266 268 272 276 280 280 280 281 281 280 279 279 280 280 281 282 282 282 283 283 283 284 284 282 282 283 284 285 284 282 280 278 277 276 273 271
347 352 352 348 344 338 337 338 339 339 339 337 334 330 326 322 317 312 304 294 284 272 256 241 230 223 218 212 210 213 222 234 242 243 242 242 240 240 240 237 235 232 233 237 243 251 257 261 265 268 271 276 279 281 283 283 282 281 280 280 281 283 284 286 287 288 288 287 286 285 284 285 285 285 285 285 284 284 282 280 280 278 275 272 270
359 355 350 346 343 346 349 351 352 350 347 343 339 335 331 327 322 318 314 306 294 276 255 239 226 216 208 204 206 222 239 244 244 242 242 240 238 239 239 236 233 231 233 240 248 255 260 263 267 271 275 278 281 283 283 282 282 282 283 285 287 288 288 288 287 288 289 288 287 286 284 285 287 287 287 286 284 282 278 275 277 278 273 269 267
353 349 351 355 358 360 358 355 352 348 344 341 337 333 329 325 320 316 313 307 295 272 248 231 212 195 189 199 225 245 247 245 244 243 240 237 237 238 237 234 233 233 238 246 252 258 261 265 270 275 279 281 282 283 282 281 280 280 282 286 287 285 283 281 279 281 283 283 281 280 281 284 285 284 283 281 278 275 271 268 270 271 269 266 263
354 358 4 7 3 359 353 350 348 345 343 342 338 336 333 329 327 324 319 312 302 282 242 147 137 147 198 249 254 252 250 249 246 242 238 236 237 238 237 236 236 240 247 251 256 260 263 268 273 277 281 282 282 282 283 283 280 276 277 279 279 278 277 274 272 273 275 274 273 274 279 281 280 278 277 273 270 269 268 268 268 266 266 263 259
3 8 7 3 356 352 349 348 347 345 345 344 342 340 341 343 347 352 357 6 23 39 44 44 35 338 288 272 264 260 257 253 246 241 239 238 239 239 240 243 246 251 254 257 260 263 267 272 276 280 283 284 284 284 284 283 280 278 278 276 275 276 276 273 271 270 270 269 271 274 275 273 272 272 273 273 272 271 270 269 269 268 266 266 264
11 9 0 354 352 350 348 347 347 348 347 346 344 343 348 359 8 16 24 30 30 25 15 0 340 318 301 290 281 272 263 255 248 245 244 244 246 248 250 254 258 260 261 262 265 269 273 277 280 283 286 287 287 285 284 282 281 280 278 275 276 278 278 276 273 271 270 270 271 272 269 268 271 272 271 270 271 272 271 270 271 272 271 272 272
6 358 353 351 350 347 346 348 350 350 348 346 347 348 352 1 7 9 10 9 4 359 351 342 333 320 308 298 286 275 267 262 257 254 254 255 256 257 259 264 266 265 265 267 271 274 277 280 283 286 288 289 288 286 286 284 282 280 278 278 282 286 284 282 278 275 273 271 270 269 269 271 276 277 274 273 272 274 275 275 275 275 275 275 276
352 349 349 348 348 348 349 352 351 347 346 346 346 345 345 349 351 351 351 350 348 348 345 338 329 318 307 296 286 280 275 271 268 264 262 262 262 264 269 272 270 269 271 273 275 277 279 281 285 288 289 290 290 289 288 285 283 282 282 284 290 294 292 289 287 282 277 273 271 271 272 274 277 279 278 276 275 275 275 275 275 275 277 278 277
346 346 345 347 352 355 352 350 347 345 344 343 341 337 336 338 340 341 344 348 349 347 342 335 326 314 304 296 289 283 278 275 271 268 266 267 270 275 278 277 275 274 276 277 278 279 281 285 288 290 290 291 292 291 290 287 285 285 285 288 293 295 293 291 290 287 282 278 277 277 277 277 277 278 278 275 272 273 273 273 274 274 275 276 276
343 341 345 355 1 358 351 348 347 346 345 343 340 335 331 332 337 343 348 351 350 346 341 335 326 315 305 298 292 285 282 280 277 276 278 280 281 283 283 281 279 279 280 281 281 283 285 287 290 291 292 293 294 293 291 289 288 287 287 290 293 293 291 291 290 289 287 286 284 282 280 278 277 277 277 274 273 274 274 274 275 276 278 279 280
343 345 357 7 2 354 351 351 350 349 349 349 348 345 342 345 352 355 354 350 347 344 341 335 329 322 316 309 303 301 298 296 293 292 291 291 290 289 288 286 284 283 284 284 285 286 287 288 290 292 294 293 293 293 293 291 290 288 287 289 292 292 293 293 291 291 292 290 286 282 278 275 275 275 275 274 274 276 278 280 282 284 282 281 282
352 6 14 6 356 351 352 355 354 354 355 358 -0 0 1 3 1 356 351 348 345 342 339 335 330 325 322 320 319 316 313 310 307 305 302 299 297 294 292 291 289 287 287 288 287 287 287 289 291 293 293 291 290 292 293 292 291 289 287 289 292 291 289 288 288 288 288 286 282 282 280 275 274 275 275 276 279 282 284 286 285 283 280 280 285
8 21 10 358 354 353 354 356 357 358 359 1 2 4 3 360 355 352 350 347 344 341 338 334 329 327 326 325 325 322 319 317 312 309 306 303 300 298 296 294 292 290 288 287 286 285 286 289 292 293 293 291 290 291 294 294 293 289 286 287 290 288 284 284 283 283 283 282 281 281 278 271 270 276 279 282 285 286 285 285 284 284 289 296 299
18 12 359 354 354 355 356 356 357 358 0 1 0 359 355 351 352 353 351 348 343 338 336 332 329 329 328 327 326 323 320 317 313 309 306 303 302 301 298 296 293 290 287 285 285 285 285 288 292 293 292 292 292 292 294 294 292 288 286 287 288 286 283 280 280 279 279 278 275 271 265 264 272 281 283 283 284 284 285 288 291 295 299 303 308
12 1 356 354 354 356 356 356 356 358 359 359 358 356 352 350 354 356 352 347 343 338 335 332 330 330 329 327 326 323 319 315 312 308 304 302 301 300 297 295 292 288 286 284 285 286 286 288 291 292 292 293 294 294 294 295 293 289 286 285 284 283 280 277 277 277 276 272 269 270 276 283 287 286 282 280 280 283 290 300 306 304 307 315 324
1 355 357 358 356 356 356 356 358 357 357 358 356 352 349 350 353 353 349 345 342 338 333 330 329 329 328 327 325 322 319 315 310 307 303 301 301 299 296 294 291 287 286 285 285 286 287 288 290 292 294 296 297 297 298 297 297 293 287 283 281 279 278 279 280 281 280 279 282 287 290 291 288 282 278 279 283 291 303 313 312 314 320 323 319
357 355 359 0 357 354 355 358 358 354 353 355 355 350 347 348 349 347 344 341 339 336 331 329 328 327 326 326 324 320 318 314 311 309 304 301 301 300 297 294 291 287 285 284 285 287 286 286 288 291 295 298 299 301 302 301 300 297 290 285 282 281 284 288 289 288 288 289 289 289 290 290 286 283 285 291 298 304 312 314 315 320 320 315 313
358 360 1 0 357 354 354 352 352 353 352 352 353 351 347 345 344 341 339 337 334 331 328 326 326 324 324 323 320 317 315 312 311 309 305 303 302 300 297 295 292 289 285 283 285 286 285 284 284 286 291 297 301 302 303 303 302 299 294 290 288 287 288 290 291 288 286 286 285 285 287 289 290 293 299 303 303 303 306 309 311 312 310 309 312
3 2 0 358 355 353 351 347 347 351 351 350 353 353 346 342 339 337 336 333 331 328 326 325 324 323 323 321 319 317 315 314 312 309 306 304 301 298 296 294 291 287 284 282 283 283 282 282 281 282 286 292 297 299 299 301 301 299 297 295 292 289 287 287 287 284 281 281 282 284 286 288 291 295 299 298 293 291 294 298 301 303 305 307 309
2 359 357 357 353 349 347 344 342 346 350 351 352 351 347 342 338 337 335 332 329 328 326 324 323 323 322 321 319 318 317 316 315 313 309 306 303 299 294 290 288 286 283 281 281 280 278 277 277 280 283 287 291 292 292 294 298 298 297 295 292 290 289 288 285 281 280 281 282 281 280 280 281 282 282 279 277 281 287 292 296 300 302 303 305
354 354 353 353 350 345 342 339 339 343 347 347 346 345 345 342 339 338 337 334 333 331 327 324 324 323 322 322 321 319 318 317 315 314 311 308 305 302 295 290 288 285 282 280 278 277 276 275 275 278 280 282 283 284 286 292 296 296 294 292 290 290 290 288 286 285 285 285 282 276 273 273 272 270 268 269 272 278 287 293 296 298 300 302 304
345 347 349 350 347 341 337 337 339 343 343 341 340 341 343 342 340 340 340 338 337 335 331 329 328 326 325 325 323 321 319 317 315 314 312 309 307 303 297 295 295 293 288 285 281 278 279 278 275 275 275 274 276 283 292 297 295 290 288 286 284 284 284 283 282 282 279 275 269 265 263 261 260 260 263 269 277 285 291 293 294 297 300 303 306
339 340 342 344 341 337 336 338 339 341 340 337 337 341 344 345 344 343 343 342 340 337 333 331 331 330 328 327 325 322 321 319 316 315 313 312 311 307 298 292 294 295 294 288 279 275 278 279 277 277 279 277 280 289 298 295 289 289 290 288 286 285 283 281 279 275 268 261 256 253 250 249 252 260 270 280 286 290 291 292 294 298 300 304 307
337 336 336 337 336 335 337 338 338 338 336 335 338 344 346 344 345 346 344 342 341 337 332 330 329 328 328 327 324 322 321 319 317 316 314 312 312 312 308 301 295 292 292 289 283 280 284 286 287 291 295 292 291 295 296 292 292 297 299 298 295 292 288 286 282 276 267 258 254 254 256 261 270 275 279 284 285 285 287 290 295 298 300 304 306